Regional Weather Roundup
Issued by NWS

Home | Current Version | Previous Version | Graphics & Text | Print | Product List | Glossary On
Versions: 1 2 3 4 5 6 7 8 9 10 11 12 13 14 15 16 17 18 19 20 21 22 23 24 25 26 27 28 29 30 31 32 33 34 35 36 37 38 39 40 41 42 43 44 45 46 47 48 49 50
000
ASUS43 KIND 190959
RWRIN

WEATHER ROUNDUP FOR INDIANA
NATIONAL WEATHER SERVICE INDIANAPOLIS IN
500 AM EST SUN NOV 19 2017

NOTE: "FAIR" INDICATES FEW OR NO CLOUDS BELOW 12,000 FEET WITH NO
SIGNIFICANT WEATHER AND/OR OBSTRUCTIONS TO VISIBILITY.

* - STATION DOES NOT REPORT WEATHER SUCH AS PRECIPITATION OR FOG.

+ - STATION NOT QUALITY CONTROLLED BY THE NATIONAL WEATHER SERVICE.
    USE DATA WITH CAUTION...ESPECIALLY DEWPOINT AND RELATIVE
    HUMIDITY OBSERVATIONS.

INZ001>003-010>013-019-020-191100-
NORTHWEST INDIANA

CITY           SKY/WX    TMP DP  RH WIND       PRES   REMARKS
KNOX *+        CLOUDY    36  30  80 W10G17    29.87R WCI  28
LA PORTE +     CLOUDY    36  29  76 NW9       29.88R WCI  29
MONTICELLO +   CLOUDY    35  31  87 W12G18    29.90R WCI  27

$$

LMZ046-743>745-191100-
SOUTHERN LAKE MICHIGAN

STATION/POSITION TIME  TEMP    WIND        PRES    WAVE
                       AIR SEA DIR/SP/G            HT
                 (UTC) (F)     (DEG/KT/KT) (MB)    (FT)
BURNS HARBOR     0940   37     300/ 21/ 26 1012.5R
MICHIGAN CITY    0930   37     270/ 28/ 31   N/A

$$

INZ004-005-014>016-021>024-191100-
NORTH CENTRAL INDIANA

CITY           SKY/WX    TMP DP  RH WIND       PRES   REMARKS
GOSHEN         CLOUDY    38  28  67 NW15      29.83R WCI  29
PERU/GRISSOM   CLOUDY    37  31  80 W13       29.86R WCI  28
SOUTH BEND     CLOUDY    36  30  79 NW14      29.85R WCI  27
WARSAW +       CLOUDY    36  30  80 W15       29.84R WCI  26

$$

INZ006>009-017-018-025>027-191100-
NORTHEAST INDIANA

CITY           SKY/WX    TMP DP  RH WIND       PRES   REMARKS
AUBURN +       CLOUDY    37  32  81 W12       29.81R WCI  30
FORT WAYNE     CLOUDY    39  32  76 W13       29.83R WCI  31
KENDALLVILLE + CLOUDY    37  32  84 W5        29.80R WCI  33

$$

INZ028-029-035-036-043>045-051>053-191100-
WEST CENTRAL INDIANA

CITY           SKY/WX    TMP DP  RH WIND       PRES   REMARKS
LAFAYETTE      CLOUDY    34  30  85 W14       29.93R WCI  25
TERRE HAUTE    CLOUDY    34  27  75 NW14G22   29.99R WCI  25

$$

INZ030>032-037>040-046>048-054>057-064-065-191100-
CENTRAL INDIANA

CITY           SKY/WX    TMP DP  RH WIND       PRES   REMARKS
INDIANAPOLIS   CLOUDY    37  30  75 W13       29.92R WCI  29
-EAGLE CREEK   CLOUDY    37  30  75 W15       29.91R WCI  28
KOKOMO +       CLOUDY    37  30  75 W13       29.89R WCI  29
MT COMFORT *+  CLOUDY    36  32  87 W7        29.90R WCI  30
SHELBYVILLE    CLOUDY    39  28  64 W9        29.90S WCI  33

$$

INZ033-034-041-042-049-050-058-059-191100-
EAST CENTRAL INDIANA

CITY           SKY/WX    TMP DP  RH WIND       PRES   REMARKS
MUNCIE         CLOUDY    38  31  76 W12       29.86R WCI  30
RICHMOND +     CLOUDY    36  32  87 W12       29.85S WCI  27

$$

INZ060-061-067>069-081>083-085>088-191100-
SOUTHWEST INDIANA

CITY           SKY/WX    TMP DP  RH WIND       PRES   REMARKS
EVANSVILLE     CLOUDY    38  32  79 W9        30.04R WCI  31
HUNTINGBURG +  CLOUDY    38  32  79 W13       30.00S WCI  30

$$

INZ062-063-066-070>080-084-089>092-191100-
SOUTH CENTRAL AND SOUTHEAST INDIANA

CITY           SKY/WX    TMP DP  RH WIND       PRES   REMARKS
BLOOMINGTON    CLOUDY    36  30  79 W9G18     29.95R WCI  29
MADISON *+     CLOUDY    37  30  75 W9        29.94S WCI  31
SEYMOUR +      CLOUDY    39  32  75 W9        29.94S WCI  33

$$




USA.gov is the U.S. government's official web portal to all federal, state and local government web resources and services.